Anchorage, AK

12:44 PM AKDT on March 24, 2017 (GMT -0800)
Ted Stevens Anchorage Int'l Airport

Weather History for PANC - January, 2013

Change the Weather History Date:

Friday, January 18, 2013

  Actual Average Record
Temperature  
Mean Temperature 9 °F 17 °F  
Max Temperature 13 °F 23 °F 46 °F (1981)
Min Temperature 5 °F 11 °F -19 °F (1989)
Degree Days  
Heating Degree Days 56    
Month to date heating degree days 695  
Since 1 July heating degree days 5706  
Cooling Degree Days 0    
Month to date cooling degree days 0  
Year to date cooling degree days 0  
Moisture  
Dew Point 4 °F    
Average Humidity 71    
Maximum Humidity 83    
Minimum Humidity 58    
Precipitation  
Precipitation 0.00 in 0.03 in 0.23 in (2010)
Month to date precipitation 0.79 0.43  
Year to date precipitation 0.79 0.43  
Snow  
Snow 0.00 in 0.30 in 3.30 in (2010)
Month to date snowfall 8.9 6.6  
Since 1 July snowfall 33.8 44.7  
Snow Depth 12.00 in    
Sea Level Pressure  
Sea Level Pressure 30.14 in    
Wind  
Wind Speed 6 mph (North)    
Max Wind Speed 9 mph    
Max Gust Speed -    
Visibility 10 miles    
Events Fog    
T = Trace of Precipitation, MM = Missing Value Source: NWS Daily Summary

Daily Weather History Graph

Daily Weather History Graph

Search for Another Location

Airport or City:

Trip Planner

Search our weather history database for the weather conditions in past years. The results will help you decide how hot, cold, wet, or windy it might be!

Date:

Astronomy

Jan. 18, 2013 Rise Set
Actual Time 9:50 AM AKST 4:31 PM AKST
Civil Twilight 8:56 AM AKST 5:25 PM AKST
Nautical Twilight 8:00 AM AKST 6:21 PM AKST
Astronomical Twilight 7:08 AM AKST 7:13 PM AKST
Moon 11:08 AM AKST (1/18) 1:51 AM AKST (1/18)
Length of Visible Light 8h 29m
Length of Day
6h 40m
Waxing Crescent, 49% of the Moon is Illuminated
Jan 18
Waxing Crescent
Jan 18
First Quarter
Jan 26
Full
Feb 3
Last Quarter
Feb 9
New

Hourly Weather History & Observations

Time (AKST) Temp. Windchill Dew Point Humidity Pressure Visibility Wind Dir Wind Speed Gust Speed Precip Events Conditions
12:53 AM 12.9 °F 5.2 °F 3.0 °F 65% 29.97 in 10.0 mi NNE 4.6 mph - N/A   Mostly Cloudy
1:53 AM 12.0 °F 1.5 °F 1.9 °F 64% 30.00 in 10.0 mi North 6.9 mph - N/A   Mostly Cloudy
2:53 AM 9.0 °F - 1.0 °F 70% 30.02 in 10.0 mi Calm Calm - N/A   Scattered Clouds
3:53 AM 5.0 °F -5.6 °F -0.9 °F 76% 30.05 in 10.0 mi North 5.8 mph - N/A   Scattered Clouds
4:53 AM 10.0 °F 0.4 °F -0.9 °F 61% 30.05 in 10.0 mi North 5.8 mph - N/A   Scattered Clouds
5:53 AM 9.0 °F -2.2 °F -0.0 °F 67% 30.07 in 10.0 mi North 6.9 mph - N/A   Scattered Clouds
6:53 AM 10.0 °F 3.6 °F 1.0 °F 67% 30.08 in 10.0 mi NNE 3.5 mph - N/A   Scattered Clouds
7:53 AM 10.9 °F 2.9 °F 3.0 °F 70% 30.08 in 10.0 mi North 4.6 mph - N/A   Overcast
8:53 AM 10.9 °F 1.4 °F 3.9 °F 73% 30.12 in 10.0 mi NNW 5.8 mph - N/A   Mostly Cloudy
9:22 AM 10.4 °F 2.2 °F 3.2 °F 73% 30.12 in 10.0 mi North 4.6 mph - N/A   Mostly Cloudy
9:53 AM 10.9 °F 2.9 °F 3.9 °F 73% 30.14 in 10.0 mi North 4.6 mph - N/A   Mostly Cloudy
10:53 AM 10.9 °F 1.4 °F 5.0 °F 77% 30.15 in 10.0 mi North 5.8 mph - N/A Fog Mostly Cloudy
11:53 AM 10.9 °F 2.9 °F 3.9 °F 73% 30.17 in 10.0 mi North 4.6 mph - N/A Fog Mostly Cloudy
12:53 PM 12.0 °F 5.9 °F 5.0 °F 73% 30.19 in 10.0 mi North 3.5 mph - N/A Fog Mostly Cloudy
1:53 PM 10.9 °F 4.7 °F 5.0 °F 77% 30.19 in 10.0 mi North 3.5 mph - N/A Fog Mostly Cloudy
2:45 PM 10.4 °F 2.2 °F 5.0 °F 79% 30.18 in 10.0 mi North 4.6 mph - N/A Fog Mostly Cloudy
2:53 PM 10.9 °F 2.9 °F 5.0 °F 77% 30.20 in 10.0 mi NNE 4.6 mph - N/A Fog Mostly Cloudy
3:53 PM 12.0 °F 1.5 °F 5.0 °F 73% 30.19 in 10.0 mi North 6.9 mph - N/A Fog Mostly Cloudy
4:53 PM 10.9 °F -0.8 °F 5.0 °F 77% 30.20 in 10.0 mi North 8.1 mph - N/A Fog Mostly Cloudy
5:53 PM 12.0 °F -0.4 °F 5.0 °F 73% 30.20 in 10.0 mi North 9.2 mph - N/A   Mostly Cloudy
6:53 PM 12.0 °F 4.1 °F 5.0 °F 73% 30.21 in 10.0 mi North 4.6 mph - N/A   Mostly Cloudy
7:53 PM 12.0 °F 4.1 °F 5.0 °F 73% 30.22 in 10.0 mi NNE 4.6 mph - N/A   Overcast
8:53 PM 12.9 °F 1.6 °F 3.9 °F 67% 30.21 in 10.0 mi North 8.1 mph - N/A   Overcast
9:53 PM 12.9 °F 1.6 °F 5.0 °F 71% 30.22 in 10.0 mi NNE 8.1 mph - N/A   Overcast
10:53 PM 12.9 °F 2.6 °F 5.0 °F 71% 30.22 in 10.0 mi North 6.9 mph - N/A   Overcast
11:53 PM 14.0 °F 5.1 °F 5.0 °F 67% 30.22 in 10.0 mi North 5.8 mph - N/A   Mostly Cloudy